[[{"header":{"parameterUnit":"m.s-1","parameterCategory":2,"la1":30.2991,"la2":30.254,"lo1":-89.0895,"lo2":-89.0444,"dy":0.0017,"dx":0.0017,"nx":28,"ny":28,"refTime":"2023-08-28T03:00:00:Z","depth":"0","parameterNumber":2,"parameterNumberName":"U-component_of_CURRENTS"},"data":[0,0,0,0,0,0,0,0,0,0,0,0,0,0,0,0,0,0,0,0,0,0,0,0,0,0,0,0,0,0,0,0,0,0,0,0,0,0,0,0,0,0,0,0,0,0,0,0,0,0,0,0,0,0,0,0,0,0,-0.3003,-0.3007,0,-0.3264,-0.3266,-0.3267,-0.3315,-0.3315,-0.3314,-0.3314,-0.3408,-0.3411,-0.3414,0,0,0,0,0,0,0,0,0,0,0,0,0,-0.2632,-0.2636,-0.3002,-0.3007,-0.3012,-0.3264,-0.3266,-0.3267,-0.3315,-0.3315,-0.3314,-0.3313,-0.3407,-0.3411,-0.3414,0,0,0,0,0,0,0,0,0,0,0,0,0,-0.2815,-0.2638,-0.3001,-0.3079,-0.309,-0.3263,-0.3266,-0.3268,-0.3315,-0.3315,-0.3314,-0.3313,-0.3406,-0.341,-0.3415,-0.3457,0,0,-0.3428,-0.343,0,0,0,0,0,0,0,0,-0.2805,-0.2826,-0.3063,-0.3075,-0.3087,-0.3272,-0.3171,-0.3329,-0.3316,-0.3211,-0.3314,-0.3313,-0.3359,-0.3368,-0.3395,-0.3461,-0.3465,-0.3429,-0.3431,-0.3433,-0.3435,0,0,0,0,0,0,0,-0.2792,-0.2817,-0.3088,-0.3069,-0.3084,-0.3133,-0.3155,-0.3201,-0.3269,-0.322,-0.3229,-0.3287,-0.3362,-0.3391,-0.3398,-0.3467,-0.3429,-0.3433,-0.3435,-0.3437,-0.352,-0.3519,0,0,0,0,0,0,-0.2793,-0.2804,-0.308,-0.3097,-0.2962,-0.3141,-0.3165,-0.3199,-0.3272,-0.329,-0.3287,-0.3288,-0.3384,-0.3392,-0.3401,-0.3342,-0.3433,-0.3437,-0.344,-0.352,-0.352,-0.3519,0,0,0,0,0,0,-0.2783,-0.2814,-0.3069,-0.2972,-0.301,-0.3149,-0.3186,-0.3205,-0.3233,-0.3329,-0.3338,-0.3298,-0.3383,-0.3395,-0.3431,-0.335,-0.344,-0.3444,-0.3521,-0.352,-0.3519,-0.3296,0,0,0,0,0,0,-0.2771,-0.2808,-0.2807,-0.2972,-0.3017,-0.3138,-0.3189,-0.3211,-0.3279,-0.3282,-0.3341,-0.335,-0.3384,-0.3424,-0.3435,-0.3358,-0.3447,-0.3521,-0.352,-0.352,-0.3304,-0.3288,-0.3274,0,0,0,0,0,-0.2756,-0.276,-0.2804,-0.2838,-0.3018,-0.314,-0.3162,-0.3249,-0.328,-0.3272,-0.3326,-0.3348,-0.3425,-0.3428,-0.3441,-0.3362,-0.3522,-0.3521,-0.352,-0.3311,-0.3291,-0.3274,0,0,0,0,0,0,-0.2612,-0.2773,-0.2823,-0.2879,-0.299,-0.3153,-0.3166,-0.3246,-0.3288,-0.3278,-0.3356,-0.3367,-0.3362,-0.3421,-0.3422,-0.3392,-0.3472,-0.3474,-0.3309,-0.3291,-0.3276,-0.3231,-0.3451,0,0,0,0,0,-0.2584,-0.2615,-0.2788,-0.283,-0.2874,-0.3018,-0.3076,-0.3142,-0.323,-0.3248,-0.3308,-0.3356,-0.3372,-0.3378,-0.3418,-0.3413,-0.3434,-0.3374,-0.3359,-0.3345,-0.3323,-0.3302,-0.328,-0.3516,-0.3516,-0.3516,0,0,-0.2557,-0.2642,-0.2669,-0.28,-0.2882,-0.2924,-0.3042,-0.3117,-0.3129,-0.325,-0.3254,-0.3311,-0.3367,-0.3345,-0.3346,-0.3377,-0.3288,-0.3344,-0.333,-0.3316,-0.3298,-0.3275,-0.3254,-0.3515,-0.3515,-0.3515,0,0,-0.2509,-0.2571,-0.2578,-0.2646,-0.2772,-0.285,-0.2869,-0.302,-0.3042,-0.3089,-0.3154,-0.3156,-0.3236,-0.3221,-0.323,-0.3164,-0.3217,-0.3202,-0.3068,-0.3046,-0.3025,-0.3006,-0.2976,-0.2957,-0.3182,-0.3181,-0.3181,0,-0.2465,-0.2509,-0.26,-0.2617,-0.2673,-0.2804,-0.2826,-0.2859,-0.3001,-0.3022,-0.3053,-0.3128,-0.3147,-0.31,-0.306,-0.3112,-0.3141,-0.3115,-0.3018,-0.3001,-0.2985,-0.296,-0.2941,-0.317,-0.3171,-0.3173,-0.3174,0,-0.2432,-0.2458,-0.2462,-0.2513,-0.2561,-0.2606,-0.2689,-0.2716,-0.2773,-0.2836,-0.2837,-0.2874,-0.2924,-0.2907,-0.295,-0.2862,-0.2929,-0.3,-0.3042,-0.2946,-0.2928,-0.2912,-0.3155,-0.3158,-0.3162,-0.3164,0,0,-0.2374,-0.2431,-0.2431,-0.245,-0.2518,-0.2572,-0.2544,-0.2601,-0.2613,-0.2651,-0.2662,-0.2618,-0.268,-0.2695,-0.2744,-0.269,-0.2565,-0.2791,-0.2795,-0.2721,-0.2528,-0.2459,-0.2437,-0.2641,-0.2638,-0.2635,-0.2546,0,-0.2332,-0.2339,-0.2375,-0.2379,-0.24,-0.2471,-0.2455,-0.2498,-0.2537,-0.2566,-0.2548,-0.2574,-0.2586,-0.2616,-0.2549,-0.2615,-0.2523,-0.2583,-0.2668,-0.2669,-0.2586,-0.2415,-0.2331,-0.2236,-0.2532,-0.2529,-0.2528,0,-0.229,-0.2309,-0.2305,-0.2352,-0.2367,-0.2367,-0.2403,-0.2414,-0.2433,-0.2468,-0.2457,-0.2508,-0.2435,-0.2471,-0.2407,-0.2471,-0.2453,-0.246,-0.2459,-0.2461,-0.257,-0.2392,-0.2198,-0.2188,-0.2505,-0.2507,-0.2508,0,-0.2233,-0.2263,-0.2261,-0.2276,-0.2329,-0.2329,-0.2355,-0.2384,-0.2401,-0.2415,-0.2441,-0.2403,-0.2406,-0.2369,-0.2361,-0.2407,-0.2301,-0.2381,-0.227,-0.2268,-0.2239,-0.2238,-0.2008,-0.2262,-0.2262,-0.2262,-0.2263,0,-0.2186,-0.2187,-0.2237,-0.224,-0.2243,-0.2294,-0.2297,-0.2325,-0.2358,-0.2367,-0.2392,-0.2386,-0.2386,-0.2351,-0.2331,-0.2236,-0.2267,-0.2185,-0.2212,-0.216,-0.2153,-0.2187,-0.2247,-0.2259,-0.226,-0.226,-0.2261,0,-0.2114,-0.2149,-0.2156,-0.2204,-0.2215,-0.2216,-0.2265,-0.2279,-0.232,-0.2331,-0.2336,-0.2365,-0.2318,-0.2285,-0.2235,-0.2191,-0.2081,-0.2072,-0.1996,-0.2012,-0.19,-0.1954,-0.1798,-0.1745,-0.1928,-0.1926,-0.1923,0,-0.2072,-0.2067,-0.2112,-0.2121,-0.2137,-0.2156,-0.2174,-0.2238,-0.2259,-0.231,-0.231,-0.2283,-0.2232,-0.2119,-0.2038,-0.1929,-0.1955,-0.1794,-0.1816,-0.1802,-0.1886,-0.1938,-0.191,-0.1696,-0.1693,-0.1689,-0.1687,0,-0.1987,-0.2005,-0.2016,-0.2033,-0.2051,-0.2069,-0.2102,-0.2114,-0.2188,-0.2202,-0.2194,-0.2157,-0.2061,-0.1919,-0.1792,-0.1726,-0.176,-0.1723,-0.1727,-0.1655,-0.168,-0.1675,-0.1862,-0.1658,-0.1661,-0.1663,-0.1665,-0.1666,-0.1912,-0.1903,-0.192,-0.1922,-0.1948,-0.1946,-0.1916,-0.1969,-0.1969,-0.1947,-0.2027,-0.1916,-0.185,-0.1655,-0.1581,-0.1445,-0.1529,-0.141,-0.1467,-0.1514,-0.1457,-0.1553,-0.1379,-0.138,-0.1381,-0.1382,-0.1383,0,-0.1803,-0.1802,-0.1809,-0.1801,-0.1773,-0.1824,-0.1837,-0.1776,-0.1724,-0.1708,-0.1675,-0.1584,-0.1486,-0.142,-0.1321,-0.1232,-0.1215,-0.1204,-0.1264,-0.1241,-0.1321,-0.1304,-0.1082,-0.1082,-0.1082,-0.1082,-0.1082,-0.1082,-0.1744,-0.1701,-0.1702,-0.1606,-0.1603,-0.1517,-0.1489,-0.1416,-0.1352,-0.1195,-0.1115,-0.1054,-0.1151,-0.1344,-0.1262,-0.1179,-0.1164,-0.1115,-0.115,-0.1241,-0.1266,-0.129,-0.1281,-0.1057,-0.1057,-0.1009,-0.1009,-0.1009]},{"header":{"parameterUnit":"m.s-1","parameterCategory":2,"la1":30.2991,"la2":30.254,"lo1":-89.0895,"lo2":-89.0444,"dy":0.0017,"dx":0.0017,"nx":28,"ny":28,"refTime":"2023-08-28T03:00:00:Z","depth":"0","parameterNumber":3,"parameterNumberName":"V-component_of_CURRENTS"},"data":[0,0,0,0,0,0,0,0,0,0,0,0,0,0,0,0,0,0,0,0,0,0,0,0,0,0,0,0,0,0,0,0,0,0,0,0,0,0,0,0,0,0,0,0,0,0,0,0,0,0,0,0,0,0,0,0,0,0,-0.0329,-0.0327,0,-0.0152,-0.015,-0.0148,-0.0012,-0.0011,-0.001,-0.0008,0.0261,0.0267,0.0273,0,0,0,0,0,0,0,0,0,0,0,0,0,-0.0422,-0.0422,-0.0329,-0.0327,-0.0325,-0.0152,-0.015,-0.0147,-0.0012,-0.0011,-0.0009,-0.0008,0.0259,0.0266,0.0273,0,0,0,0,0,0,0,0,0,0,0,0,0,-0.0327,-0.0422,-0.033,-0.0237,-0.0227,-0.0153,-0.015,-0.0147,-0.0012,-0.0011,-0.0009,-0.0007,0.0257,0.0265,0.0274,0.0294,0,0,0.0302,0.0306,0,0,0,0,0,0,0,0,-0.0332,-0.0323,-0.0253,-0.0243,-0.0232,-0.0103,-0.0083,0.0005,-0.0013,-0.0093,-0.0008,-0.0006,0.0146,0.0164,0.0193,0.0306,0.0318,0.0303,0.0308,0.0312,0.0315,0,0,0,0,0,0,0,-0.0339,-0.0329,-0.0258,-0.0251,-0.0238,-0.016,-0.0146,-0.0066,0.0016,-0.0086,-0.0076,-0.0058,0.0153,0.0184,0.0201,0.0322,0.0303,0.0311,0.0316,0.032,0.0525,0.0525,0,0,0,0,0,0,-0.0371,-0.0337,-0.0264,-0.0253,-0.0279,-0.0161,-0.0145,-0.0146,0.0014,0.0039,-0.006,-0.0052,0.0168,0.019,0.0211,0.0247,0.0312,0.0321,0.0326,0.0525,0.0525,0.0525,0,0,0,0,0,0,-0.0375,-0.0368,-0.0271,-0.029,-0.0272,-0.0162,-0.0164,-0.0143,-0.011,0.0033,0.006,-0.0048,0.017,0.0198,0.027,0.0259,0.0325,0.0333,0.0525,0.0525,0.0525,0.0317,0,0,0,0,0,0,-0.0378,-0.037,-0.0383,-0.0293,-0.0272,-0.0243,-0.0165,-0.0141,-0.0102,-0.0091,0.0052,0.0079,0.0174,0.0256,0.0279,0.0272,0.034,0.0525,0.0525,0.0525,0.0324,0.031,0.0298,0,0,0,0,0,-0.0383,-0.0405,-0.0386,-0.0376,-0.0295,-0.0244,-0.0227,-0.014,-0.0104,-0.0102,-0.0008,0.0074,0.0274,0.0262,0.029,0.0285,0.0525,0.0525,0.0525,0.033,0.0313,0.0299,0,0,0,0,0,0,-0.0445,-0.0391,-0.0368,-0.0372,-0.0322,-0.0222,-0.0209,-0.0158,-0.0084,-0.0072,0.0061,0.0094,0.0158,0.025,0.0233,0.035,0.0419,0.0424,0.0262,0.0247,0.0234,0.022,0.0348,0,0,0,0,0,-0.0472,-0.0478,-0.0411,-0.0415,-0.04,-0.0313,-0.0282,-0.0231,-0.0153,-0.0118,-0.0019,0.0091,0.0179,0.0231,0.0324,0.0375,0.0448,0.0399,0.0386,0.0374,0.0384,0.045,0.0442,0.0525,0.0525,0.0525,0,0,-0.0493,-0.0467,-0.0467,-0.043,-0.0383,-0.0364,-0.029,-0.026,-0.0236,-0.0101,-0.0044,0.0043,0.0181,0.0241,0.028,0.0316,0.0385,0.0374,0.0362,0.038,0.0449,0.044,0.0433,0.0525,0.0525,0.0525,0,0,-0.0534,-0.0525,-0.0539,-0.0511,-0.0463,-0.0414,-0.0416,-0.0334,-0.0294,-0.0245,-0.0135,-0.0071,0.0071,0.0157,0.0222,0.0195,0.0309,0.0241,0.0167,0.0227,0.022,0.0215,0.0267,0.0268,0.0238,0.0238,0.0237,0,-0.056,-0.057,-0.0534,-0.0537,-0.0514,-0.0446,-0.0447,-0.0404,-0.0306,-0.0274,-0.0248,-0.006,0.003,0.012,0.011,0.0162,0.0222,0.02,0.0205,0.0202,0.02,0.0256,0.0259,0.0228,0.0229,0.023,0.0231,0,-0.0602,-0.0609,-0.0618,-0.0601,-0.0579,-0.0573,-0.0515,-0.0491,-0.0445,-0.0384,-0.0307,-0.0201,-0.0078,-0.0052,0.0019,0.0066,0.0118,0.0167,0.0227,0.0178,0.0241,0.0248,0.0213,0.0217,0.022,0.0222,0,0,-0.065,-0.0649,-0.0648,-0.0653,-0.0615,-0.06,-0.0584,-0.0535,-0.0511,-0.0445,-0.0397,-0.0294,-0.0232,-0.0154,-0.0062,-0.002,-0.0016,0.0057,0.0065,0.0079,0.0119,0.0165,0.0179,0.0032,0.0033,0.0034,0.0155,0,-0.0687,-0.0719,-0.0698,-0.0713,-0.0723,-0.0669,-0.0653,-0.0605,-0.055,-0.0491,-0.0403,-0.0324,-0.0269,-0.0222,-0.0175,-0.0032,0.0002,-0.0052,0.0195,0.0202,0.0223,0.0188,0.0237,0.0352,0.0164,0.0165,0.0166,0,-0.0724,-0.0742,-0.0775,-0.0771,-0.0769,-0.0765,-0.0725,-0.0701,-0.0613,-0.0568,-0.0489,-0.0399,-0.031,-0.0271,-0.0093,-0.0126,-0.0023,0.0063,0.0071,0.02,0.0263,0.0383,0.0374,0.0525,0.0179,0.0178,0.0177,0,-0.0773,-0.0789,-0.0822,-0.082,-0.0808,-0.0807,-0.0791,-0.0723,-0.0698,-0.061,-0.0575,-0.045,-0.0373,-0.0246,-0.0071,-0.0077,0.0124,0.0146,0.0278,0.0283,0.0421,0.0437,0.0569,0.0251,0.0251,0.025,0.025,0,-0.0819,-0.084,-0.0851,-0.0869,-0.0897,-0.0863,-0.0866,-0.0827,-0.0758,-0.0718,-0.0617,-0.0546,-0.0364,-0.0221,-0.0081,0.013,0.0121,0.0267,0.0319,0.0349,0.0356,0.0575,0.064,0.0255,0.0254,0.0253,0.0252,0,-0.0864,-0.0873,-0.0912,-0.0921,-0.0925,-0.0946,-0.0928,-0.0919,-0.0851,-0.0792,-0.0768,-0.0604,-0.0413,-0.0227,0.0008,0.013,0.042,0.0388,0.0403,0.0454,0.0698,0.0749,0.0959,0.1058,0.0544,0.0546,0.0548,0,-0.0892,-0.092,-0.096,-0.099,-0.0999,-0.102,-0.1028,-0.0974,-0.095,-0.0815,-0.0783,-0.0595,-0.0429,-0.0079,0.0166,0.0421,0.053,0.0599,0.0588,0.072,0.0816,0.0837,0.0906,0.0685,0.0687,0.0689,0.0691,0,-0.094,-0.0955,-0.0991,-0.1056,-0.1086,-0.1112,-0.111,-0.1102,-0.1014,-0.0928,-0.0766,-0.0623,-0.0277,0.0059,0.0374,0.0517,0.072,0.0649,0.0799,0.0946,0.097,0.1088,0.0585,0.071,0.0708,0.0707,0.0706,0.0705,-0.0967,-0.1011,-0.106,-0.1116,-0.1154,-0.1179,-0.1173,-0.1117,-0.1044,-0.0819,-0.0722,-0.036,-0.0014,0.0452,0.0617,0.0962,0.0903,0.1055,0.1107,0.1116,0.1209,0.0732,0.0905,0.0904,0.0903,0.0903,0.0902,0,-0.0996,-0.1046,-0.1112,-0.1174,-0.1211,-0.1217,-0.1201,-0.1118,-0.098,-0.0683,-0.0448,0.0129,0.0494,0.0845,0.1239,0.1414,0.1452,0.1489,0.1543,0.1594,0.12,0.1203,0.1432,0.1432,0.1432,0.1432,0.1431,0.1431,-0.1014,-0.1084,-0.1123,-0.1196,-0.1232,-0.1231,-0.1205,-0.1002,-0.0756,-0.0223,0.0257,0.0569,0.096,0.1452,0.1801,0.1825,0.1996,0.1963,0.2053,0.1789,0.1752,0.1717,0.1735,0.2072,0.2073,0.2439,0.2442,0.2445]}],[{"header":{"parameterUnit":"m.s-1","parameterCategory":2,"la1":30.2991,"la2":30.254,"lo1":-89.0895,"lo2":-89.0444,"dy":0.0017,"dx":0.0017,"nx":28,"ny":28,"refTime":"2023-08-28T03:00:00:Z","depth":"2","parameterNumber":2,"parameterNumberName":"U-component_of_CURRENTS"},"data":[0,0,0,0,0,0,0,0,0,0,0,0,0,0,0,0,0,0,0,0,0,0,0,0,0,0,0,0,0,0,0,0,0,0,0,0,0,0,0,0,0,0,0,0,0,0,0,0,0,0,0,0,0,0,0,0,0,0,-0.2452,-0.2452,0,-0.2486,-0.2487,-0.2487,-0.2483,-0.2482,-0.2482,-0.2481,-0.2591,-0.2594,-0.2597,0,0,0,0,0,0,0,0,0,0,0,0,0,-0.2354,-0.2356,-0.2452,-0.2452,-0.2452,-0.2486,-0.2487,-0.2487,-0.2483,-0.2482,-0.2482,-0.2481,-0.2589,-0.2594,-0.2598,0,0,0,0,0,0,0,0,0,0,0,0,0,-0.2395,-0.2357,-0.2451,-0.2453,-0.2454,-0.2486,-0.2487,-0.2488,-0.2483,-0.2482,-0.2481,-0.248,-0.2588,-0.2593,-0.2598,-0.2651,0,0,-0.2615,-0.2617,0,0,0,0,0,0,0,0,-0.2392,-0.2398,-0.2453,-0.2453,-0.2454,-0.2478,-0.2492,-0.2546,-0.2484,-0.2473,-0.2481,-0.248,-0.256,-0.2568,-0.2577,-0.2656,-0.2661,-0.2615,-0.2618,-0.262,-0.2622,0,0,0,0,0,0,0,-0.239,-0.2397,-0.2466,-0.2453,-0.2454,-0.2443,-0.2448,-0.2502,-0.2524,-0.2474,-0.2474,-0.2476,-0.2561,-0.2572,-0.258,-0.2662,-0.2615,-0.262,-0.2623,-0.2625,-0.276,-0.276,0,0,0,0,0,0,-0.2386,-0.2395,-0.2465,-0.2467,-0.2419,-0.2446,-0.2451,-0.2472,-0.2522,-0.2528,-0.2477,-0.2476,-0.2563,-0.2573,-0.2583,-0.2592,-0.262,-0.2625,-0.2628,-0.2759,-0.276,-0.276,0,0,0,0,0,0,-0.2384,-0.2393,-0.2464,-0.2429,-0.2437,-0.2449,-0.2472,-0.2474,-0.2485,-0.2523,-0.253,-0.2487,-0.2563,-0.2576,-0.2637,-0.2599,-0.2628,-0.2633,-0.2759,-0.2759,-0.276,-0.2647,0,0,0,0,0,0,-0.2382,-0.2393,-0.2402,-0.243,-0.2439,-0.2475,-0.2473,-0.2475,-0.2488,-0.2487,-0.2534,-0.2543,-0.2563,-0.2629,-0.2642,-0.2606,-0.2637,-0.2758,-0.2759,-0.276,-0.265,-0.2643,-0.2638,0,0,0,0,0,-0.2379,-0.239,-0.2403,-0.241,-0.2454,-0.2475,-0.2479,-0.2483,-0.2489,-0.2492,-0.2533,-0.2541,-0.2641,-0.2634,-0.265,-0.2614,-0.2758,-0.2759,-0.276,-0.2653,-0.2645,-0.2638,0,0,0,0,0,0,-0.2343,-0.2392,-0.2406,-0.243,-0.2449,-0.2474,-0.2475,-0.249,-0.2524,-0.2529,-0.2566,-0.2579,-0.2608,-0.2649,-0.264,-0.2659,-0.2694,-0.2698,-0.2607,-0.2601,-0.2595,-0.2575,-0.2641,0,0,0,0,0,-0.2345,-0.2368,-0.2407,-0.2421,-0.2435,-0.2461,-0.247,-0.2481,-0.2515,-0.2527,-0.2558,-0.2597,-0.2625,-0.2644,-0.2682,-0.2713,-0.272,-0.2698,-0.2692,-0.2686,-0.2684,-0.2672,-0.2663,-0.2763,-0.2763,-0.2763,0,0,-0.2332,-0.236,-0.2372,-0.2415,-0.2432,-0.2444,-0.2464,-0.2482,-0.2483,-0.2539,-0.2554,-0.2586,-0.2634,-0.2647,-0.2663,-0.2675,-0.2659,-0.2688,-0.2681,-0.2683,-0.2671,-0.2661,-0.2652,-0.2764,-0.2763,-0.2763,0,0,-0.2307,-0.2349,-0.2356,-0.2379,-0.241,-0.2431,-0.2439,-0.2473,-0.2479,-0.2516,-0.2535,-0.2546,-0.2617,-0.2608,-0.2622,-0.2618,-0.263,-0.2636,-0.2581,-0.2568,-0.2559,-0.255,-0.2519,-0.2509,-0.2626,-0.2626,-0.2626,0,-0.2285,-0.231,-0.2356,-0.2366,-0.2379,-0.2426,-0.243,-0.2446,-0.2489,-0.2496,-0.2511,-0.2561,-0.2584,-0.2576,-0.2559,-0.2594,-0.26,-0.2594,-0.2554,-0.2547,-0.254,-0.2511,-0.2502,-0.2621,-0.2621,-0.2622,-0.2622,0,-0.2265,-0.2287,-0.2292,-0.2326,-0.2344,-0.236,-0.2395,-0.2412,-0.2436,-0.2448,-0.2459,-0.2485,-0.251,-0.2501,-0.2529,-0.2489,-0.251,-0.2545,-0.2558,-0.2522,-0.2495,-0.2487,-0.2613,-0.2615,-0.2617,-0.2618,0,0,-0.2214,-0.2268,-0.2269,-0.2285,-0.2331,-0.2348,-0.2356,-0.2378,-0.2386,-0.2402,-0.2399,-0.24,-0.2413,-0.2431,-0.2444,-0.2418,-0.2348,-0.2458,-0.246,-0.2401,-0.2312,-0.2231,-0.2215,-0.2382,-0.2381,-0.238,-0.23,0,-0.2182,-0.2196,-0.223,-0.2241,-0.2258,-0.2306,-0.2314,-0.2338,-0.2363,-0.2374,-0.2371,-0.2384,-0.2387,-0.2395,-0.2363,-0.2381,-0.2329,-0.2366,-0.2381,-0.2381,-0.2291,-0.2203,-0.2069,-0.1979,-0.2293,-0.2291,-0.229,0,-0.2147,-0.2169,-0.2174,-0.2223,-0.2234,-0.2242,-0.2279,-0.2293,-0.2318,-0.2338,-0.2335,-0.2359,-0.2323,-0.2338,-0.2292,-0.2326,-0.23,-0.2293,-0.2291,-0.2251,-0.2284,-0.2076,-0.1953,-0.2277,-0.2278,-0.2279,-0.228,0,-0.2095,-0.2131,-0.2136,-0.2152,-0.2207,-0.2213,-0.224,-0.2274,-0.2291,-0.2312,-0.2328,-0.2312,-0.2309,-0.2283,-0.2257,-0.2286,-0.2206,-0.2249,-0.2133,-0.2128,-0.2033,-0.2021,-0.2181,-0.2181,-0.2181,-0.2181,-0.2181,0,-0.2055,-0.206,-0.2115,-0.2121,-0.213,-0.2182,-0.2192,-0.2222,-0.2261,-0.2271,-0.2301,-0.2296,-0.23,-0.2267,-0.2241,-0.2147,-0.2186,-0.2092,-0.209,-0.1989,-0.1975,-0.227,-0.2281,-0.2178,-0.2179,-0.2179,-0.218,0,-0.1988,-0.2027,-0.2039,-0.2092,-0.2104,-0.2111,-0.2164,-0.218,-0.2226,-0.224,-0.2247,-0.2278,-0.2232,-0.2204,-0.2157,-0.2111,-0.2046,-0.1996,-0.1863,-0.1845,-0.198,-0.1988,-0.1861,-0.1858,-0.1854,-0.1852,-0.1849,0,-0.1952,-0.1952,-0.2,-0.2012,-0.2031,-0.2056,-0.2077,-0.2142,-0.2165,-0.2217,-0.2218,-0.2195,-0.2143,-0.2034,-0.1953,-0.1849,-0.193,-0.1671,-0.1683,-0.193,-0.1942,-0.1955,-0.1966,-0.1509,-0.1504,-0.15,-0.1497,0,-0.1877,-0.1896,-0.191,-0.1931,-0.1952,-0.1972,-0.2009,-0.202,-0.2096,-0.2107,-0.2096,-0.2057,-0.1965,-0.1793,-0.1672,-0.1608,-0.1683,-0.1586,-0.1863,-0.1615,-0.1592,-0.1607,-0.163,-0.1462,-0.1465,-0.1468,-0.147,-0.1471,-0.1809,-0.1803,-0.1822,-0.1828,-0.1857,-0.1857,-0.1822,-0.1876,-0.1871,-0.1845,-0.1914,-0.1798,-0.1762,-0.1492,-0.1388,-0.1306,-0.143,-0.1374,-0.1389,-0.1407,-0.1385,-0.1358,-0.1178,-0.1179,-0.1181,-0.1182,-0.1184,0,-0.1711,-0.1711,-0.172,-0.1714,-0.169,-0.1741,-0.1747,-0.1685,-0.1622,-0.1636,-0.1586,-0.1397,-0.1266,-0.1225,-0.1042,-0.0998,-0.1014,-0.0956,-0.0989,-0.1024,-0.1055,-0.1018,-0.0712,-0.071,-0.0709,-0.0708,0,0,-0.1659,-0.162,-0.1619,-0.1529,-0.1527,-0.143,-0.1394,-0.1329,-0.1294,-0.1196,-0.1138,-0.1199,-0.1199,-0.0968,-0.0903,-0.0775,-0.0894,-0.0732,-0.1111,-0.1186,-0.1216,-0.1295,-0.1276,0,0,0,0,0]},{"header":{"parameterUnit":"m.s-1","parameterCategory":2,"la1":30.2991,"la2":30.254,"lo1":-89.0895,"lo2":-89.0444,"dy":0.0017,"dx":0.0017,"nx":28,"ny":28,"refTime":"2023-08-28T03:00:00:Z","depth":"2","parameterNumber":3,"parameterNumberName":"V-component_of_CURRENTS"},"data":[0,0,0,0,0,0,0,0,0,0,0,0,0,0,0,0,0,0,0,0,0,0,0,0,0,0,0,0,0,0,0,0,0,0,0,0,0,0,0,0,0,0,0,0,0,0,0,0,0,0,0,0,0,0,0,0,0,0,-0.0372,-0.0371,0,-0.0298,-0.0297,-0.0296,-0.0228,-0.0227,-0.0226,-0.0226,-0.0059,-0.0056,-0.0052,0,0,0,0,0,0,0,0,0,0,0,0,0,-0.04,-0.04,-0.0372,-0.0371,-0.037,-0.0299,-0.0297,-0.0296,-0.0228,-0.0227,-0.0226,-0.0225,-0.0061,-0.0056,-0.0052,0,0,0,0,0,0,0,0,0,0,0,0,0,-0.0361,-0.04,-0.0372,-0.0329,-0.0324,-0.0299,-0.0297,-0.0296,-0.0228,-0.0227,-0.0226,-0.0225,-0.0062,-0.0057,-0.0051,-0.0036,0,0,-0.0034,-0.0031,0,0,0,0,0,0,0,0,-0.0364,-0.036,-0.0336,-0.0332,-0.0327,-0.0273,-0.0246,-0.0205,-0.0228,-0.0262,-0.0226,-0.0224,-0.0124,-0.0113,-0.01,-0.0028,-0.0021,-0.0033,-0.003,-0.0027,-0.0026,0,0,0,0,0,0,0,-0.0366,-0.0363,-0.0341,-0.0335,-0.033,-0.0295,-0.0289,-0.0238,-0.0197,-0.0259,-0.0255,-0.025,-0.0121,-0.0106,-0.0096,-0.0019,-0.0033,-0.0028,-0.0025,-0.0022,0.0114,0.0115,0,0,0,0,0,0,-0.0384,-0.0366,-0.0343,-0.0339,-0.0345,-0.0296,-0.0289,-0.029,-0.0199,-0.0186,-0.0251,-0.0247,-0.0116,-0.0102,-0.0089,-0.0049,-0.0027,-0.0022,-0.0019,0.0114,0.0114,0.0115,0,0,0,0,0,0,-0.0385,-0.0382,-0.0346,-0.0351,-0.0345,-0.0297,-0.0298,-0.0289,-0.0274,-0.0194,-0.0178,-0.0247,-0.0115,-0.0097,-0.0049,-0.0042,-0.0019,-0.0014,0.0114,0.0114,0.0114,0.0021,0,0,0,0,0,0,-0.0386,-0.0383,-0.0395,-0.0353,-0.0345,-0.0336,-0.0299,-0.0288,-0.0274,-0.0268,-0.0185,-0.0169,-0.0113,-0.0058,-0.0043,-0.0034,-0.001,0.0114,0.0114,0.0114,0.0024,0.0019,0.0014,0,0,0,0,0,-0.0387,-0.0408,-0.0396,-0.0393,-0.0361,-0.0337,-0.0329,-0.029,-0.0275,-0.0273,-0.0219,-0.0171,-0.0044,-0.0054,-0.0037,-0.0025,0.0113,0.0114,0.0114,0.0027,0.002,0.0014,0,0,0,0,0,0,-0.0428,-0.0402,-0.0388,-0.04,-0.0373,-0.0326,-0.0326,-0.03,-0.0258,-0.0252,-0.0176,-0.0156,-0.0109,-0.0057,-0.007,0.0017,0.0046,0.005,-0.0027,-0.0033,-0.0038,-0.0043,-0.0005,0,0,0,0,0,-0.0444,-0.0451,-0.0415,-0.0426,-0.0417,-0.0374,-0.0363,-0.0336,-0.0293,-0.0275,-0.0217,-0.0152,-0.0094,-0.0058,-0.0002,0.0039,0.0087,0.0062,0.0056,0.0051,0.006,0.0121,0.0122,0.0116,0.0116,0.0116,0,0,-0.0463,-0.0451,-0.0454,-0.0435,-0.0412,-0.0402,-0.0364,-0.0352,-0.0337,-0.0262,-0.0227,-0.0173,-0.009,-0.0043,-0.0015,0.0003,0.0076,0.0052,0.0047,0.0059,0.0122,0.0122,0.0123,0.0117,0.0116,0.0116,0,0,-0.05,-0.0494,-0.0507,-0.0489,-0.0463,-0.0434,-0.0435,-0.0391,-0.0365,-0.0332,-0.027,-0.0216,-0.0135,-0.007,-0.0027,-0.0026,0.0039,-0.0006,-0.0029,0.0029,0.003,0.0031,0.0076,0.0082,-0.0002,-0.0002,-0.0002,0,-0.0523,-0.0533,-0.0507,-0.051,-0.0499,-0.0452,-0.0455,-0.0424,-0.0369,-0.0345,-0.0331,-0.0207,-0.0144,-0.0068,-0.0066,-0.0037,-0.0,-0.0018,0.002,0.0023,0.0026,0.0072,0.0079,-0.0006,-0.0006,-0.0005,-0.0005,0,-0.0561,-0.0567,-0.0574,-0.0559,-0.0545,-0.0542,-0.0496,-0.0476,-0.0444,-0.0402,-0.0338,-0.0258,-0.0177,-0.0151,-0.0106,-0.0047,-0.0028,-0.0004,0.0029,0.002,0.0069,0.0079,-0.0013,-0.0011,-0.001,-0.0009,0,0,-0.0605,-0.0602,-0.0602,-0.0604,-0.057,-0.0562,-0.054,-0.0499,-0.0478,-0.0421,-0.0382,-0.0288,-0.0243,-0.019,-0.0126,-0.007,-0.0027,-0.0033,-0.0028,-0.0002,0.0091,0.0119,0.0133,-0.0002,-0.0,0.0001,0.011,0,-0.0636,-0.0663,-0.0644,-0.0654,-0.066,-0.0612,-0.0595,-0.0551,-0.0502,-0.0452,-0.0364,-0.0306,-0.0257,-0.0223,-0.016,-0.0055,-0.0002,-0.0059,0.0109,0.0114,0.013,0.0146,0.0123,0.022,0.012,0.0122,0.0123,0,-0.0669,-0.0683,-0.071,-0.0701,-0.0698,-0.0694,-0.0653,-0.063,-0.0547,-0.0507,-0.0431,-0.0362,-0.0262,-0.0231,-0.0062,-0.0103,-0.0013,0.0062,0.0069,0.0139,0.0161,0.022,0.0243,0.0141,0.0139,0.0138,0.0137,0,-0.0711,-0.0721,-0.0748,-0.0745,-0.073,-0.0728,-0.0713,-0.0649,-0.0624,-0.054,-0.0509,-0.0388,-0.0321,-0.0198,-0.0042,-0.0052,0.0139,0.0147,0.0258,0.026,0.03,0.0303,0.0264,0.0263,0.0263,0.0263,0.0263,0,-0.0748,-0.0764,-0.0774,-0.0788,-0.0811,-0.0779,-0.0778,-0.0741,-0.0678,-0.0641,-0.0543,-0.0477,-0.031,-0.0179,-0.0049,0.014,0.0138,0.0265,0.0298,0.0265,0.0264,0.0247,0.0243,0.0267,0.0266,0.0265,0.0265,0,-0.0787,-0.0793,-0.0824,-0.0831,-0.0835,-0.0853,-0.0838,-0.0828,-0.0764,-0.0711,-0.0689,-0.0535,-0.0363,-0.0191,0.0026,0.0135,0.0305,0.0371,0.0314,0.0339,0.0384,0.0375,0.0501,0.0503,0.0505,0.0506,0.0507,0,-0.081,-0.0833,-0.0868,-0.0896,-0.0903,-0.0922,-0.0931,-0.088,-0.0859,-0.0735,-0.0707,-0.0537,-0.0388,-0.007,0.0145,0.0377,0.037,0.0478,0.0463,0.0393,0.0413,0.04,0.0389,0.0473,0.0474,0.0475,0.0475,0,-0.0851,-0.0865,-0.0895,-0.0957,-0.0986,-0.1008,-0.101,-0.1002,-0.0924,-0.0846,-0.0703,-0.0575,-0.0271,-0.0003,0.0277,0.0402,0.0436,0.05,0.0465,0.041,0.0374,0.039,0.0379,0.0481,0.0481,0.048,0.048,0.048,-0.0875,-0.0915,-0.096,-0.1013,-0.105,-0.1076,-0.1077,-0.1044,-0.0983,-0.0841,-0.0711,-0.0486,-0.0238,0.0176,0.0376,0.0538,0.0532,0.0572,0.0567,0.0561,0.0533,0.0502,0.0626,0.0627,0.0627,0.0627,0.0627,0,-0.0906,-0.0952,-0.1012,-0.1072,-0.1111,-0.1116,-0.111,-0.1071,-0.098,-0.0836,-0.0661,-0.0355,-0.0055,0.0181,0.0461,0.0633,0.0603,0.0641,0.0577,0.057,0.0564,0.0533,0.0628,0.0629,0.0629,0.063,0,0,-0.0926,-0.0991,-0.1026,-0.1101,-0.1139,-0.1152,-0.1136,-0.1055,-0.0945,-0.0764,-0.0592,-0.0358,-0.0054,0.0151,0.0366,0.0503,0.0479,0.0502,0.0483,0.0375,0.0366,0.051,0.0454,0,0,0,0,0]}],[{"header":{"parameterUnit":"m.s-1","parameterCategory":2,"la1":30.2991,"la2":30.254,"lo1":-89.0895,"lo2":-89.0444,"dy":0.0017,"dx":0.0017,"nx":28,"ny":28,"refTime":"2023-08-28T03:00:00:Z","depth":"4","parameterNumber":2,"parameterNumberName":"U-component_of_CURRENTS"},"data":[0,0,0,0,0,0,0,0,0,0,0,0,0,0,0,0,0,0,0,0,0,0,0,0,0,0,0,0,0,0,0,0,0,0,0,0,0,0,0,0,0,0,0,0,0,0,0,0,0,0,0,0,0,0,0,0,0,0,-0.1698,-0.1699,0,-0.1711,-0.1712,-0.1712,-0.1718,-0.1718,-0.1718,-0.1718,-0.1752,-0.1752,-0.1753,0,0,0,0,0,0,0,0,0,0,0,0,0,-0.1629,-0.1631,-0.1698,-0.1699,-0.1699,-0.1711,-0.1712,-0.1712,-0.1718,-0.1718,-0.1718,-0.1718,-0.1751,-0.1752,-0.1753,0,0,0,0,0,0,0,0,0,0,0,0,0,-0.1653,-0.1631,-0.1698,-0.1703,-0.1704,-0.1711,-0.1712,-0.1712,-0.1718,-0.1718,-0.1718,-0.1718,-0.1751,-0.1752,-0.1754,-0.1763,0,0,-0.1758,-0.1758,0,0,0,0,0,0,0,0,-0.1651,-0.1655,-0.1702,-0.1703,-0.1704,-0.1713,-0.1699,-0.173,-0.1718,-0.1713,-0.1718,-0.1718,-0.174,-0.1743,-0.1745,-0.1764,-0.1766,-0.1758,-0.1759,-0.1759,-0.176,0,0,0,0,0,0,0,-0.165,-0.1654,-0.1704,-0.1703,-0.1703,-0.1688,-0.1691,-0.1705,-0.1727,-0.1713,-0.1714,-0.1715,-0.1741,-0.1744,-0.1746,-0.1766,-0.1758,-0.1759,-0.176,-0.176,-0.1802,-0.1802,0,0,0,0,0,0,-0.1651,-0.1653,-0.1703,-0.1704,-0.1677,-0.1689,-0.1693,-0.171,-0.1727,-0.1729,-0.1715,-0.1715,-0.1742,-0.1744,-0.1747,-0.1795,-0.1759,-0.1761,-0.1761,-0.1802,-0.1802,-0.1802,0,0,0,0,0,0,-0.165,-0.1656,-0.1703,-0.1678,-0.1682,-0.1691,-0.1709,-0.171,-0.1739,-0.1728,-0.173,-0.1745,-0.1742,-0.1745,-0.1774,-0.1795,-0.1761,-0.1762,-0.1801,-0.1802,-0.1802,-0.1867,0,0,0,0,0,0,-0.1648,-0.1656,-0.168,-0.1678,-0.1684,-0.1719,-0.1709,-0.1711,-0.1738,-0.1739,-0.1754,-0.1755,-0.1742,-0.1772,-0.1775,-0.1796,-0.1763,-0.1801,-0.1801,-0.1802,-0.1864,-0.1869,-0.1874,0,0,0,0,0,-0.1645,-0.1668,-0.1682,-0.1688,-0.1714,-0.172,-0.1722,-0.1726,-0.174,-0.1753,-0.1763,-0.1756,-0.1777,-0.1774,-0.1778,-0.1799,-0.1801,-0.1801,-0.1802,-0.1862,-0.1868,-0.1873,0,0,0,0,0,0,-0.1641,-0.1671,-0.1686,-0.1716,-0.1726,-0.1721,-0.1738,-0.1747,-0.1767,-0.1781,-0.1772,-0.1773,-0.1799,-0.1791,-0.1788,-0.1808,-0.1783,-0.1785,-0.1828,-0.1834,-0.1838,-0.1837,-0.1765,0,0,0,0,0,-0.1656,-0.1688,-0.1702,-0.1726,-0.174,-0.175,-0.176,-0.1767,-0.1777,-0.1788,-0.1796,-0.1801,-0.18,-0.1813,-0.1809,-0.1837,-0.1814,-0.1847,-0.1852,-0.1856,-0.1855,-0.1848,-0.1853,-0.1804,-0.1804,-0.1804,0,0,-0.1659,-0.168,-0.1698,-0.1729,-0.1743,-0.1759,-0.1757,-0.1783,-0.1799,-0.1789,-0.1825,-0.1823,-0.1809,-0.1827,-0.1838,-0.1829,-0.1854,-0.1857,-0.1861,-0.1857,-0.1849,-0.1854,-0.1858,-0.1805,-0.1805,-0.1805,0,0,-0.1659,-0.1707,-0.1726,-0.1746,-0.1776,-0.1786,-0.1803,-0.1822,-0.1839,-0.1871,-0.1857,-0.1874,-0.1887,-0.1874,-0.187,-0.1902,-0.1876,-0.1901,-0.1934,-0.1929,-0.1933,-0.1936,-0.1904,-0.1904,-0.1908,-0.1908,-0.1908,0,-0.1661,-0.1693,-0.1729,-0.1749,-0.1767,-0.1803,-0.182,-0.1843,-0.1867,-0.1879,-0.1891,-0.1903,-0.1905,-0.1908,-0.1917,-0.1915,-0.1897,-0.1919,-0.1936,-0.1939,-0.1942,-0.1907,-0.1907,-0.1912,-0.1911,-0.1911,-0.1911,0,-0.1662,-0.1702,-0.1717,-0.1762,-0.1786,-0.1812,-0.1846,-0.1881,-0.1917,-0.1928,-0.1956,-0.1959,-0.1959,-0.1966,-0.1959,-0.1972,-0.1946,-0.1942,-0.1926,-0.1951,-0.1912,-0.191,-0.1916,-0.1915,-0.1914,-0.1913,0,0,-0.1627,-0.1704,-0.1712,-0.174,-0.1801,-0.1817,-0.1863,-0.1897,-0.1925,-0.1964,-0.1983,-0.2002,-0.2009,-0.2003,-0.1997,-0.2005,-0.2013,-0.199,-0.1989,-0.1965,-0.1982,-0.1846,-0.183,-0.2018,-0.2018,-0.2018,-0.1945,0,-0.1616,-0.1658,-0.1699,-0.1744,-0.1772,-0.1828,-0.1863,-0.1906,-0.1945,-0.1977,-0.1999,-0.2016,-0.2021,-0.203,-0.204,-0.2018,-0.2012,-0.2032,-0.1955,-0.1952,-0.1835,-0.1825,-0.2019,-0.1944,-0.1943,-0.1943,-0.1943,0,-0.1596,-0.1633,-0.1675,-0.1748,-0.1766,-0.18,-0.1868,-0.1902,-0.1956,-0.1986,-0.2015,-0.2028,-0.2044,-0.205,-0.2031,-0.2044,-0.2018,-0.2002,-0.1999,-0.1847,-0.1812,-0.1914,-0.1938,-0.1939,-0.1939,-0.1939,-0.194,0,-0.1543,-0.1614,-0.1652,-0.1678,-0.1763,-0.1796,-0.1842,-0.1904,-0.1934,-0.199,-0.2012,-0.2033,-0.2043,-0.2032,-0.2006,-0.2023,-0.1971,-0.1984,-0.1829,-0.1818,-0.1938,-0.1935,-0.1961,-0.1961,-0.1961,-0.1961,-0.1961,0,-0.1505,-0.1539,-0.1639,-0.166,-0.1707,-0.1777,-0.1824,-0.1872,-0.1934,-0.1955,-0.2011,-0.2013,-0.2045,-0.202,-0.1999,-0.1889,-0.1957,-0.1818,-0.1788,-0.1963,-0.1965,-0.1935,-0.1933,-0.1958,-0.1959,-0.1959,-0.196,0,-0.1436,-0.1504,-0.1554,-0.1652,-0.1684,-0.1718,-0.181,-0.1839,-0.1909,-0.1936,-0.1954,-0.1997,-0.1956,-0.1948,-0.1913,-0.1851,-0.1781,-0.1724,-0.1888,-0.1871,-0.1635,-0.1638,-0.1542,-0.1537,-0.1532,-0.1528,-0.1525,0,-0.14,-0.1422,-0.1532,-0.1565,-0.1615,-0.168,-0.1721,-0.1811,-0.1836,-0.1903,-0.1899,-0.1894,-0.19,-0.1718,-0.1744,-0.1654,-0.164,-0.1592,-0.1637,-0.1611,-0.1592,-0.1602,-0.161,-0.1518,-0.1517,-0.1515,-0.1514,0,-0.1327,-0.1382,-0.1425,-0.149,-0.1546,-0.159,-0.1655,-0.1657,-0.1745,-0.1833,-0.1775,-0.1729,-0.1668,-0.1618,-0.1542,-0.1496,-0.1622,-0.1544,-0.1554,-0.1596,-0.158,-0.1568,-0.1582,-0.1498,-0.15,-0.1502,-0.1503,0,-0.1273,-0.1286,-0.1351,-0.139,-0.1459,-0.1466,-0.1516,-0.1531,-0.1557,-0.1642,-0.1617,-0.1608,-0.165,-0.1533,-0.1476,-0.14,-0.1389,-0.1354,-0.1374,-0.1392,-0.1377,-0.1336,-0.1136,0,0,0,0,0,-0.1207,-0.1205,-0.1243,-0.1274,-0.1337,-0.1363,-0.1454,-0.1509,-0.1597,-0.1512,-0.1556,-0.149,-0.1393,-0.1397,-0.1281,-0.1409,-0.1397,-0.1272,-0.1371,-0.1409,-0.1428,-0.1423,0,0,0,0,0,0,-0.1162,-0.1193,-0.1198,-0.1159,-0.1156,-0.1199,-0.1246,-0.1314,-0.1274,-0.1371,-0.1317,-0.1393,-0.1313,-0.1414,-0.1243,-0.1243,-0.1273,-0.1282,-0.1277,-0.1399,-0.1415,-0.143,-0.1432,0,0,0,0,0]},{"header":{"parameterUnit":"m.s-1","parameterCategory":2,"la1":30.2991,"la2":30.254,"lo1":-89.0895,"lo2":-89.0444,"dy":0.0017,"dx":0.0017,"nx":28,"ny":28,"refTime":"2023-08-28T03:00:00:Z","depth":"4","parameterNumber":3,"parameterNumberName":"V-component_of_CURRENTS"},"data":[0,0,0,0,0,0,0,0,0,0,0,0,0,0,0,0,0,0,0,0,0,0,0,0,0,0,0,0,0,0,0,0,0,0,0,0,0,0,0,0,0,0,0,0,0,0,0,0,0,0,0,0,0,0,0,0,0,0,-0.0299,-0.0299,0,-0.0272,-0.0272,-0.0271,-0.0243,-0.0243,-0.0242,-0.0242,-0.0183,-0.0182,-0.018,0,0,0,0,0,0,0,0,0,0,0,0,0,-0.0296,-0.0296,-0.0299,-0.0299,-0.0299,-0.0272,-0.0272,-0.0271,-0.0243,-0.0242,-0.0242,-0.0242,-0.0183,-0.0182,-0.018,0,0,0,0,0,0,0,0,0,0,0,0,0,-0.0285,-0.0296,-0.0299,-0.0282,-0.0281,-0.0272,-0.0272,-0.0271,-0.0243,-0.0242,-0.0242,-0.0242,-0.0184,-0.0182,-0.018,-0.0177,0,0,-0.0174,-0.0173,0,0,0,0,0,0,0,0,-0.0285,-0.0285,-0.0285,-0.0284,-0.0282,-0.0262,-0.0249,-0.0238,-0.0243,-0.0256,-0.0242,-0.0241,-0.0208,-0.0204,-0.0198,-0.0174,-0.0171,-0.0174,-0.0173,-0.0172,-0.0171,0,0,0,0,0,0,0,-0.0286,-0.0285,-0.0287,-0.0285,-0.0283,-0.0266,-0.0264,-0.0247,-0.0233,-0.0255,-0.0253,-0.0252,-0.0206,-0.02,-0.0196,-0.017,-0.0174,-0.0172,-0.0171,-0.017,-0.014,-0.014,0,0,0,0,0,0,-0.0294,-0.0286,-0.0288,-0.0287,-0.0284,-0.0266,-0.0264,-0.0267,-0.0234,-0.0229,-0.0253,-0.0251,-0.0204,-0.0199,-0.0194,-0.0171,-0.0172,-0.017,-0.0169,-0.0139,-0.014,-0.014,0,0,0,0,0,0,-0.0294,-0.0295,-0.0289,-0.0286,-0.0285,-0.0267,-0.0271,-0.0267,-0.0266,-0.0233,-0.0227,-0.0256,-0.0203,-0.0197,-0.0186,-0.017,-0.0169,-0.0167,-0.0139,-0.014,-0.014,-0.0136,0,0,0,0,0,0,-0.0294,-0.0295,-0.0307,-0.0287,-0.0285,-0.0289,-0.0271,-0.0267,-0.0266,-0.0264,-0.0233,-0.0227,-0.0202,-0.0189,-0.0184,-0.0167,-0.0166,-0.0139,-0.0139,-0.014,-0.0136,-0.0137,-0.0137,0,0,0,0,0,-0.0294,-0.0312,-0.0307,-0.0308,-0.03,-0.029,-0.0287,-0.0272,-0.0267,-0.0269,-0.025,-0.0228,-0.019,-0.0188,-0.0182,-0.0164,-0.0138,-0.0139,-0.014,-0.0136,-0.0137,-0.0137,0,0,0,0,0,0,-0.032,-0.031,-0.0305,-0.032,-0.0308,-0.0286,-0.0292,-0.028,-0.0267,-0.0268,-0.0235,-0.0228,-0.0211,-0.0198,-0.0197,-0.016,-0.0159,-0.0159,-0.0158,-0.0159,-0.016,-0.0159,-0.0164,0,0,0,0,0,-0.0331,-0.0341,-0.0324,-0.0338,-0.0334,-0.0315,-0.0312,-0.0301,-0.0285,-0.0279,-0.0256,-0.0234,-0.0209,-0.0194,-0.0177,-0.0159,-0.0133,-0.0145,-0.0145,-0.0146,-0.0143,-0.0088,-0.0082,-0.0143,-0.0143,-0.0143,0,0,-0.0345,-0.0342,-0.0349,-0.0344,-0.0335,-0.0331,-0.0312,-0.0312,-0.0304,-0.0275,-0.0263,-0.024,-0.0209,-0.0185,-0.0175,-0.017,-0.0118,-0.0147,-0.0147,-0.0144,-0.0088,-0.0081,-0.0076,-0.0143,-0.0143,-0.0143,0,0,-0.0374,-0.0376,-0.0389,-0.038,-0.0371,-0.0355,-0.0358,-0.0337,-0.0324,-0.0314,-0.0284,-0.0249,-0.023,-0.0184,-0.0163,-0.016,-0.0128,-0.0163,-0.0154,-0.01,-0.0094,-0.0088,-0.0055,-0.0046,-0.0156,-0.0156,-0.0156,0,-0.0391,-0.0403,-0.0391,-0.0396,-0.0393,-0.0368,-0.0372,-0.0354,-0.0332,-0.0317,-0.0316,-0.0254,-0.0222,-0.0167,-0.0161,-0.0156,-0.0136,-0.0149,-0.0098,-0.0092,-0.0086,-0.0053,-0.0044,-0.0156,-0.0156,-0.0156,-0.0156,0,-0.042,-0.0429,-0.0436,-0.0432,-0.0426,-0.0428,-0.04,-0.0389,-0.0373,-0.0346,-0.0304,-0.0256,-0.0215,-0.0194,-0.0174,-0.0113,-0.0117,-0.0108,-0.0091,-0.0079,-0.0046,-0.0036,-0.0156,-0.0156,-0.0156,-0.0156,0,0,-0.045,-0.0456,-0.0457,-0.0461,-0.0445,-0.0442,-0.0428,-0.0399,-0.0385,-0.0348,-0.0318,-0.0251,-0.022,-0.0195,-0.0153,-0.0095,-0.0028,-0.0086,-0.0084,-0.0045,0.0074,0.0058,0.0067,-0.0012,-0.001,-0.0008,0.0078,0,-0.0472,-0.0496,-0.0486,-0.0499,-0.0505,-0.0476,-0.0465,-0.0435,-0.0403,-0.0367,-0.0294,-0.0259,-0.0222,-0.02,-0.0133,-0.0061,-0.0001,-0.0053,0.0048,0.0051,0.0045,0.0079,-0.0002,0.0085,0.0088,0.0089,0.0091,0,-0.0492,-0.0507,-0.0532,-0.0531,-0.0531,-0.0534,-0.0508,-0.0493,-0.043,-0.0403,-0.0341,-0.0294,-0.0201,-0.0179,-0.0034,-0.0074,-0.0001,0.006,0.0064,0.0057,0.0055,0.0072,0.0109,0.0108,0.0106,0.0105,0.0104,0,-0.0516,-0.0531,-0.0556,-0.0557,-0.0554,-0.0559,-0.0553,-0.0509,-0.0492,-0.0427,-0.0405,-0.03,-0.025,-0.014,-0.0018,-0.0027,0.0136,0.014,0.0198,0.0197,0.0184,0.0177,0.0251,0.0251,0.0251,0.025,0.025,0,-0.0532,-0.055,-0.0576,-0.0588,-0.0614,-0.0598,-0.0605,-0.058,-0.0536,-0.0509,-0.0429,-0.0378,-0.0238,-0.0132,-0.0021,0.0116,0.0136,0.0209,0.0227,0.018,0.0172,0.0191,0.0183,0.0254,0.0253,0.0252,0.0252,0,-0.0547,-0.0564,-0.0596,-0.0617,-0.063,-0.065,-0.0657,-0.0651,-0.0608,-0.0569,-0.0552,-0.0431,-0.0294,-0.0153,0.0029,0.0104,0.024,0.0286,0.0215,0.0226,0.0263,0.0254,0.0356,0.0356,0.0357,0.0357,0.0357,0,-0.0555,-0.0577,-0.0629,-0.0661,-0.0678,-0.0707,-0.0724,-0.0695,-0.068,-0.0592,-0.0568,-0.044,-0.0346,-0.0096,0.0042,0.0241,0.027,0.0323,0.031,0.0271,0.0279,0.0269,0.026,0.0358,0.0358,0.0358,0.0358,0,-0.0569,-0.0597,-0.0628,-0.0699,-0.0737,-0.0767,-0.0784,-0.0774,-0.0723,-0.0687,-0.0556,-0.0422,-0.0268,-0.0087,0.0061,0.0207,0.0278,0.0327,0.0327,0.0315,0.0274,0.0279,0.027,0.0359,0.0359,0.0359,0.0359,0,-0.0581,-0.0615,-0.067,-0.0724,-0.078,-0.0808,-0.0813,-0.0774,-0.0745,-0.0635,-0.0592,-0.0413,-0.0307,-0.0103,0.0041,0.0171,0.0203,0.0234,0.024,0.024,0.0176,0.0106,0.0166,0,0,0,0,0,-0.0587,-0.0631,-0.069,-0.0751,-0.0805,-0.0831,-0.084,-0.0829,-0.0778,-0.0685,-0.0631,-0.0475,-0.0244,-0.0138,-0.0007,0.0021,0.0199,0.0175,0.0231,0.0365,0.0363,0.0306,0,0,0,0,0,0,-0.0596,-0.0656,-0.0689,-0.0758,-0.0801,-0.0849,-0.0854,-0.0822,-0.0754,-0.0682,-0.055,-0.0462,-0.0234,-0.0316,-0.0008,0.003,0.0079,0.029,0.0293,0.0365,0.0364,0.0363,0.0304,0,0,0,0,0]}]]